Regional Weather Roundup
Issued by NWS

Home | Current Version | Previous Version | Text Only | Print | Product List | Glossary On
Versions: 1 2 3 4 5 6 7 8 9 10 11 12 13 14 15 16 17 18 19 20 21 22 23 24 25 26 27 28 29 30 31 32 33 34 35 36 37 38 39 40 41 42 43 44 45 46 47 48 49 50
000
ASUS42 KFFC 180903
RWRGA
WEATHER ROUNDUP FOR GEORGIA
NATIONAL WEATHER SERVICE PEACHTREE CITY GA
400 AM EST THU DEC 18 2014

NOTE: "FAIR" INDICATES FEW OR NO CLOUDS BELOW 12,000 FEET WITH NO
SIGNIFICANT WEATHER AND/OR OBSTRUCTIONS TO VISIBILITY.

* = USE WITH CAUTION. THE STATIONS MARKED WITH AN ASTERISK MAY NOT
REPORT WEATHER SUCH AS PRECIPITATION, FOG, OR THUNDER AND ARE NOT
QUALITY CONTROLLED BY NWS.

THE REMARK "TC" DENOTES TEMPERATURE READING IN DEGREES CELSIUS.

GAZ001>058-181000-
NORTH GEORGIA

CITY           SKY/WX    TMP DP  RH WIND       PRES   REMARKS
ATLANTA        CLOUDY    39  32  76 NW8       30.12F WCI  33
ATHENS         CLOUDY    37  33  85 NW7       30.10R WCI  32
CHAMBLEE       MOCLDY    37  31  78 NW3       30.12S
PEACHTREE CITY CLOUDY    38  34  85 NW6       30.14S WCI  33
ROME           MOCLDY    37  30  75 N8        30.16F WCI  31
WEST ATLANTA   MOCLDY    38  31  76 NW3       30.14F
GAINESVILLE    MOCLDY    37  30  75 W5        30.10S WCI  33
CARTERSVILLE   PTCLDY    34  30  85 CALM      30.17F


CITY           SKY/WX    TMP DP  RH WIND       PRES   REMARKS
DALTON*        CLOUDY    36  32  87 N12       30.17F WCI  27
MARIETTA       PTCLDY    37  32  84 W6        30.12F WCI  32
$$

GAZ059>098-102>109-181000-
CENTRAL GEORGIA

CITY           SKY/WX    TMP DP  RH WIND       PRES   REMARKS
AUGUSTA-BUSH   PTCLDY    33  32  96 CALM      30.10S
AUGUSTA-DANIEL PTCLDY    41  37  86 CALM      30.09S
COLUMBUS       CLOUDY    39  36  89 NW5       30.16R
MACON          CLOUDY    36  36 100 CALM      30.13R
ROBINS AFB     CLOUDY    40  35  85 SW5       30.13S


CITY           SKY/WX    TMP DP  RH WIND       PRES   REMARKS
LAGRANGE*      CLOUDY    38  36  94 CALM      30.14F
SYLVANIA*      PTCLDY    36  36 100 CALM      30.10F
MILLEDGEVILLE* CLOUDY    34  34 100 CALM      30.11R
$$

GAZ099>101-110>166-181000-
SOUTH GEORGIA

CITY           SKY/WX    TMP DP  RH WIND       PRES   REMARKS
SAVANNAH       CLEAR     41  36  82 CALM      30.11F
VALDOSTA       CLOUDY    39  38  96 CALM      30.15S FOG
ALMA           CLOUDY    41  39  93 CALM      30.14R
ST SIMONS      MOCLDY    47  42  83 NW3       30.12F
FT STEWART     CLEAR     38  36  92 CALM      30.12S
ALBANY         MOCLDY    42  40  92 CALM      30.18S
HUNTER AFB     CLEAR     38  37  97 CALM      30.09F
MOODY AFB      CLOUDY    42  40  91 W2        30.14S
BRUNSWICK      MOCLDY    43  41  93 CALM      30.13F


CITY           SKY/WX    TMP DP  RH WIND       PRES   REMARKS
BAINBRIDGE*    CLOUDY    43  43 100 CALM      30.17S
MOULTRIE*      MOCLDY    43  43 100 CALM      30.16S
VIDALIA*       PTCLDY    37  37 100 CALM      30.13R
WAYCROSS*      CLOUDY    46  44  93 CALM      30.14S
DOUGLAS*       CLOUDY    43  41  93 CALM      30.15R
$$


USA.gov is the U.S. government's official web portal to all federal, state and local government web resources and services.